Regional Weather Roundup
Issued by NWS

Home | Current Version | Previous Version | Text Only | Print | Product List | Glossary Off
Versions: 1 2 3 4 5 6 7 8 9 10 11 12 13 14 15 16 17 18 19 20 21 22 23 24 25 26 27 28 29 30 31 32 33 34 35 36 37 38 39 40 41 42 43 44 45 46 47 48 49 50

000
ASUS43 KTOP 301159
RWRKS

WEATHER ROUNDUP FOR KANSAS
NATIONAL WEATHER SERVICE GOODLAND KS
700 AM CDT TUE JUN 30 2015

NOTE:  "FAIR" INDICATES FEW OR NO CLOUDS BELOW 12,000 FEET WITH NO
SIGNIFICANT WEATHER AND/OR OBSTRUCTIONS TO VISIBILITY.

KSZ001>006-013>018-027>032-041>047-301300-
NORTHWEST KANSAS

CITY           SKY/WX    TMP DP  RH WIND       PRES   REMARKS
GOODLAND       CLEAR     64  54  69 W6        30.07S
6HR MIN TEMP:  62; 6HR MAX TEMP:  69;

HAYS           CLEAR     66  52  59 NW5       30.00R
HILL CITY      CLEAR     65  55  70 W5        30.01R
6HR MIN TEMP:  62; 6HR MAX TEMP:  69;

RUSSELL        CLEAR     65  58  78 S8        29.99S
6HR MIN TEMP:  63; 6HR MAX TEMP:  72;

$$

KSZ061>065-074>080-084>089-301300-
SOUTHWEST KANSAS

CITY           SKY/WX    TMP DP  RH WIND       PRES   REMARKS
DODGE CITY     CLEAR     71  56  58 W10       30.05R
6HR MIN TEMP:  65; 6HR MAX TEMP:  71;

ELKHART          N/A     68  52  56 SW7         N/A
GARDEN CITY    CLEAR     63  56  78 W7        30.06R
6HR MIN TEMP:  62; 6HR MAX TEMP:  69;

GREAT BEND     CLEAR     64  57  77 S3        30.01S
LIBERAL        CLEAR     64  55  72 SW3         N/A
$$

KSZ066>073-081>083-090>101-301300-
SOUTHEAST KANSAS

CITY           SKY/WX    TMP DP  RH WIND       PRES   REMARKS
CHANUTE        PTCLDY    65  63  93 SW3       29.97R
6HR MIN TEMP:  63; 6HR MAX TEMP:  69;

COFFEYVILLE    CLEAR     65  64  97 S3        29.98R
6HR MIN TEMP:  64; 6HR MAX TEMP:  71;

HUTCHINSON     PTCLDY    64  59  83 CALM      29.99R
6HR MIN TEMP:  60; 6HR MAX TEMP:  70;

MEDICINE LODGE   N/A     66  61  84 CALM      30.00R
NEWTON         CLEAR     70  55  60 W3        30.01R
PARSONS        PTCLDY    64  63  96 CALM      29.99R
6HR MIN TEMP:  63; 6HR MAX TEMP:  67;

WICHITA INTL   MOCLDY    66  60  81 SW8       29.98R
6HR MIN TEMP:  65; 6HR MAX TEMP:  72;

WICHITA JABRA  CLEAR     70  60  70 SW8       29.98R
6HR MIN TEMP:  63; 6HR MAX TEMP:  75;

WINFIELD       PTCLDY    66  60  81 CALM      30.00R
6HR MIN TEMP:  63; 6HR MAX TEMP:  72;

$$

KSZ007>012-019>026-033>040-048>060-102>105-301300-
NORTHEAST KANSAS

CITY           SKY/WX    TMP DP  RH WIND       PRES   REMARKS
CONCORDIA      CLEAR     65  60  84 CALM      29.97S
6HR MIN TEMP:  64; 6HR MAX TEMP:  72;

EMPORIA        CLOUDY    66  60  81 W3        29.97R
6HR MIN TEMP:  65; 6HR MAX TEMP:  70;

LAWRENCE       PTCLDY    65  63  93 N6        29.94S FOG
6HR MIN TEMP:  62; 6HR MAX TEMP:  67;

MANHATTAN      CLEAR     63  61  93 CALM      29.96R
6HR MIN TEMP:  61; 6HR MAX TEMP:  66;

OLATHE IND     MOSUNNY   69  63  81 W3        29.95R
6HR MIN TEMP:  66; 6HR MAX TEMP:  72;

OLATHE EXE     MOSUNNY   69  62  78 W3        29.94R
6HR MIN TEMP:  65; 6HR MAX TEMP:  71;

SALINA         CLEAR     66  59  78 CALM      29.97S
6HR MIN TEMP:  65; 6HR MAX TEMP:  71;

TOPEKA BILLARD PTCLDY    67  65  93 W3        29.95R
6HR MIN TEMP:  65; 6HR MAX TEMP:  71;

TOPEKA FORBES  PTCLDY    66  61  84 CALM      29.95R
6HR MIN TEMP:  65; 6HR MAX TEMP:  71;

$$


USA.gov is the U.S. government's official web portal to all federal, state and local government web resources and services.